Theta_e
332 327 325 319 306 309 306 311 319 317 319 327 324 322 320 324 329 328 350 352 358 358 361 364 367 367 366 365 364 363 362 362 362 362 361 360 363 364 363 363 365 365 365 364 364 363 361 359 358
323 326 320 311 303 301 305 314 314 319 322 325 323 322 321 326 342 343 346 354 361 359 361 361 366 367 365 364 363 362 362 362 362 362 361 361 363 364 363 364 365 365 364 362 361 360 360 358 357
324 330 310 306 302 301 304 313 316 321 324 322 320 324 325 331 339 346 352 356 362 360 359 364 366 366 365 364 363 362 362 362 362 361 360 362 363 363 363 363 364 365 364 361 361 360 360 358 356
319 317 311 301 301 307 308 313 316 318 323 323 322 318 328 344 342 349 351 357 359 358 358 364 365 366 365 364 363 362 362 362 362 361 360 362 363 363 363 363 363 363 363 362 361 360 361 359 358
318 312 302 300 301 307 312 314 315 315 319 320 320 317 323 337 346 351 352 357 358 356 360 363 365 365 365 365 364 362 362 361 361 360 360 362 362 362 362 363 363 363 362 362 360 360 359 359 358
310 310 300 298 302 307 311 315 315 315 318 320 320 318 322 337 341 349 351 357 357 357 363 361 364 364 363 361 363 361 361 360 360 360 360 361 362 362 362 361 362 362 360 360 358 358 358 357 357
309 306 300 301 302 305 309 315 313 314 315 317 322 316 322 331 340 349 352 356 356 360 361 359 360 364 362 360 361 361 360 360 359 359 359 361 361 361 361 360 360 360 360 359 358 357 357 356 355
313 309 303 303 302 302 310 312 315 315 314 321 322 316 319 331 345 349 351 353 353 357 357 355 358 360 361 360 362 361 360 359 359 359 360 360 361 361 361 359 359 360 360 359 358 357 356 355 354
316 305 302 303 304 306 312 310 314 316 315 317 319 320 324 341 344 346 347 348 349 351 354 353 352 356 357 359 361 360 361 360 359 360 360 358 352 355 357 356 359 359 359 358 357 356 356 354 354
309 304 303 309 310 309 311 311 312 312 312 313 315 319 324 340 340 340 343 344 346 347 349 348 349 350 351 356 358 358 358 357 357 355 357 350 349 351 352 354 359 358 357 357 357 356 355 352 344
308 304 308 309 311 312 311 312 314 311 309 312 312 315 319 331 336 338 341 344 346 347 347 346 348 349 346 348 357 356 357 356 355 353 351 348 350 351 350 354 353 352 355 350 353 352 349 344 343
303 307 308 310 312 311 309 312 311 312 312 315 315 317 318 325 328 333 338 342 346 346 347 345 347 347 347 347 351 351 351 352 350 347 350 348 352 349 349 351 348 345 347 344 344 343 344 344 346
304 306 308 310 310 311 312 309 310 311 314 316 316 316 316 318 329 334 337 342 347 347 348 344 347 346 349 348 347 345 346 346 346 346 351 350 351 348 349 351 344 343 344 343 343 343 345 346 348
307 307 307 309 308 309 308 308 310 311 315 314 315 314 315 317 321 333 338 340 345 349 349 347 346 348 349 348 346 344 345 345 344 347 351 352 355 352 350 358 348 345 346 343 348 349 351 345 345
307 302 305 307 308 307 310 305 306 312 313 312 313 315 315 316 318 326 330 342 348 352 352 350 348 348 349 358 347 347 346 342 343 345 353 350 356 355 352 353 351 353 351 352 350 350 347 345 348
302 302 297 304 306 307 307 299 307 312 312 311 312 315 316 316 317 320 324 329 346 353 353 353 349 349 351 356 349 347 342 342 343 345 351 350 354 357 357 352 351 354 351 348 348 344 345 345 345
300 294 295 298 305 305 304 300 306 310 311 311 312 313 315 317 319 320 323 323 340 349 352 353 351 350 350 356 355 352 350 347 344 348 351 349 352 353 352 356 352 359 352 351 346 346 344 343 348
293 294 297 296 302 303 302 303 307 309 309 309 312 312 313 315 318 322 323 323 326 345 353 351 354 352 353 356 358 353 355 350 347 346 349 350 350 349 353 351 356 352 349 347 346 346 348 349 347
297 295 295 299 303 301 301 302 306 309 309 309 311 312 314 316 319 321 323 325 325 335 346 360 354 356 353 353 349 350 348 348 351 348 351 350 348 348 351 349 356 350 346 348 351 346 344 347 356
294 293 293 297 301 302 299 299 304 307 308 310 311 311 313 315 319 323 323 326 329 339 349 354 358 361 355 354 350 353 351 350 350 351 357 350 348 349 349 347 348 350 348 352 351 346 346 353 354
292 290 292 292 297 299 297 296 299 304 307 308 310 313 314 315 317 320 323 327 331 331 338 348 361 360 357 356 354 355 353 354 349 351 352 353 352 353 352 350 350 350 351 346 351 354 351 347 346
288 294 293 291 290 287 297 287 297 302 304 306 308 310 311 313 316 318 321 324 329 331 334 353 357 361 361 359 355 349 349 346 347 349 351 353 355 355 354 352 356 351 350 345 347 350 350 348 339
290 294 292 291 290 291 292 289 294 301 300 304 307 309 311 313 313 315 316 320 325 330 329 340 358 361 360 360 356 350 351 349 352 350 355 353 356 354 353 355 355 352 348 353 346 355 353 350 339
296 293 293 292 289 283 289 289 290 295 300 303 307 310 311 312 313 315 318 319 320 326 327 329 356 356 361 360 358 353 350 351 349 349 349 350 352 353 354 355 354 356 352 352 351 352 347 343 341
293 289 283 281 282 281 290 288 292 299 303 304 306 308 311 313 313 315 316 316 318 320 326 327 346 353 359 358 356 355 354 354 350 351 348 348 350 351 351 354 354 355 354 351 348 346 344 343 341
293 290 283 277 279 282 290 286 292 302 306 307 308 309 311 312 313 315 316 317 317 319 324 328 330 352 357 357 357 355 355 352 354 352 349 350 351 352 355 354 355 356 353 350 348 346 346 344 339
291 287 293 284 286 284 288 292 298 302 302 304 307 308 309 311 315 316 316 318 318 319 323 327 326 352 357 358 358 356 355 356 352 354 354 350 353 352 355 354 354 354 352 350 349 345 342 340 339
295 296 287 289 279 279 285 287 290 298 300 303 305 307 310 312 312 314 315 319 320 320 323 328 329 339 355 359 358 356 354 357 353 354 351 349 352 351 352 353 354 351 350 349 345 342 341 337 339
294 291 292 291 286 282 280 285 295 298 301 305 306 308 310 311 313 314 316 319 319 319 319 329 328 329 351 355 358 357 356 354 352 352 348 349 350 350 350 353 352 349 346 343 342 340 338 336 337
296 294 294 287 285 288 287 286 302 301 303 299 307 307 308 313 313 314 315 317 319 321 321 326 328 326 344 353 357 357 357 350 348 342 341 332 348 350 351 352 350 347 342 342 342 337 337 336 332
Wind_Speed
10 12 10 9 8 9 16 21 22 22 15 4 7 6 13 8 6 5 15 11 27 22 18 19 19 19 18 17 16 16 17 17 17 16 15 15 14 15 14 14 13 13 13 12 12 11 10 9 8
11 16 9 7 11 14 15 21 25 22 3 11 7 3 8 12 19 12 14 15 25 22 17 16 19 20 19 18 17 17 17 16 17 16 14 14 14 15 14 14 13 13 13 12 11 11 10 8 8
12 16 8 7 13 17 17 23 20 22 9 9 2 1 7 8 10 9 14 19 24 19 17 16 17 19 20 18 17 17 18 17 17 16 15 14 13 15 14 14 13 13 12 11 10 9 9 8 7
8 8 8 12 22 22 26 26 28 21 16 13 7 5 4 11 7 12 16 21 20 21 19 19 18 19 19 18 18 18 19 18 18 16 14 13 13 13 12 13 12 12 11 9 9 7 7 7 6
11 8 12 17 25 26 23 24 25 25 13 9 13 9 3 11 15 15 16 18 18 20 19 18 18 19 19 18 18 19 19 19 18 17 15 13 12 12 11 11 11 11 10 9 9 7 6 6 6
9 9 15 18 25 26 24 27 28 24 15 11 14 13 5 14 14 16 15 16 18 18 19 17 17 18 19 21 19 19 19 19 18 17 15 13 12 12 12 11 10 10 9 8 8 6 5 4 4
17 14 19 24 24 24 24 25 24 25 24 10 15 12 14 16 15 16 16 17 17 20 17 15 16 16 19 20 19 20 19 18 17 16 15 14 13 12 11 11 9 9 9 8 7 7 6 4 4
14 15 25 23 21 26 23 25 23 25 26 14 18 13 7 17 17 16 17 17 20 21 18 16 14 16 15 14 19 21 21 19 18 16 15 14 14 12 11 10 9 9 8 8 7 6 5 5 4
20 16 19 29 28 23 20 22 24 24 19 22 16 15 12 17 15 16 14 16 18 17 19 17 18 15 15 15 15 18 22 20 18 16 15 13 9 9 11 10 13 9 8 8 7 6 5 5 6
20 18 31 25 24 22 25 25 23 23 21 16 9 12 11 16 12 15 16 14 17 18 20 17 17 16 16 14 14 12 14 11 10 11 12 9 9 9 11 10 12 11 9 8 7 6 5 6 5
23 28 26 24 24 24 28 26 23 19 18 17 13 15 19 15 14 15 18 18 18 17 15 19 14 14 16 13 11 7 7 8 8 11 11 9 8 8 6 6 6 5 8 5 6 5 5 8 7
29 31 29 30 27 27 27 27 21 20 20 14 15 12 21 17 14 15 18 18 19 19 19 20 17 15 12 11 10 10 9 8 8 9 12 7 5 8 6 7 7 6 6 6 7 6 7 8 9
29 29 30 28 29 28 24 26 26 19 22 18 17 15 17 17 19 16 15 18 19 19 19 21 19 16 10 13 11 10 9 9 9 9 11 8 5 8 6 6 7 7 7 7 8 6 7 7 5
24 29 31 29 29 26 28 27 22 23 20 21 19 17 17 17 9 12 12 12 17 20 20 20 20 16 11 10 13 9 8 10 9 10 10 10 5 7 5 4 5 7 7 7 7 5 6 2 5
24 30 29 28 26 24 22 29 31 22 23 22 22 19 18 19 15 13 10 9 7 14 21 19 20 19 12 8 12 9 8 11 9 10 13 11 6 7 6 4 4 4 3 4 4 3 4 1 5
26 27 24 19 27 28 24 30 28 27 24 23 23 20 21 22 19 16 12 10 9 4 19 19 18 20 16 8 10 8 10 10 9 10 11 13 9 8 5 4 5 4 4 3 2 2 3 5 5
19 22 28 29 27 26 28 35 27 27 22 23 25 23 21 19 20 19 14 14 9 9 5 19 19 23 19 12 9 8 11 8 9 8 10 13 11 9 7 4 6 5 5 5 4 4 4 4 3
18 22 24 25 22 27 31 32 27 27 27 24 21 16 23 22 19 18 20 21 15 13 9 12 15 21 20 13 7 7 7 8 9 8 10 14 9 10 9 6 5 6 3 4 4 4 2 3 2
16 23 28 27 30 29 29 27 27 22 22 17 22 14 15 13 17 21 18 17 17 14 18 17 10 19 16 13 13 11 10 10 8 9 13 16 13 11 9 6 5 6 6 5 6 4 2 2 2
11 13 19 26 28 25 26 28 23 21 16 22 22 14 12 16 13 9 16 14 11 9 13 14 19 17 17 13 14 11 10 11 9 9 10 16 16 13 12 10 8 7 5 6 6 6 4 1 1
21 19 19 20 25 26 25 23 26 25 21 18 16 14 12 16 14 13 11 10 10 12 8 19 19 20 19 17 13 10 10 8 11 9 10 14 15 13 13 12 9 11 7 8 6 7 6 5 2
23 22 19 18 16 15 21 18 23 24 23 22 19 17 18 19 15 15 15 13 9 9 9 11 17 19 18 19 15 18 12 13 12 10 11 11 15 14 14 14 9 13 9 10 9 6 4 7 6
20 22 22 22 21 10 22 14 17 22 25 21 23 23 23 22 22 20 22 18 15 11 8 9 18 18 19 19 17 16 15 12 10 11 11 12 11 14 15 13 11 11 8 7 10 8 8 6 6
21 19 23 23 17 15 21 16 18 22 23 20 21 21 25 27 27 24 20 20 17 17 17 14 21 20 19 19 19 20 20 14 12 14 13 13 12 12 15 14 12 10 8 10 9 9 9 7 5
22 8 7 8 12 14 21 17 20 21 27 24 22 22 20 17 18 19 25 22 20 20 18 17 16 22 21 21 21 20 20 18 19 17 15 17 14 13 16 17 13 9 9 10 11 9 9 7 5
20 9 4 8 9 14 18 7 16 22 25 24 24 21 20 19 18 19 18 21 22 22 19 19 17 22 21 22 22 20 19 15 13 16 14 14 13 12 13 14 12 11 13 11 10 8 6 6 7
12 17 5 5 9 15 13 18 21 20 24 22 21 22 11 16 8 10 11 15 17 19 19 19 21 23 22 22 20 21 18 19 17 14 10 11 11 12 16 16 14 14 14 13 11 6 6 7 6
9 10 6 5 8 12 14 16 4 21 16 9 15 12 11 10 11 9 11 12 13 15 14 20 20 18 24 22 19 18 22 21 17 9 12 15 12 18 19 18 17 16 15 13 11 8 10 9 6
11 6 4 5 2 7 7 5 5 18 19 11 16 22 3 5 8 13 8 14 8 13 13 11 18 18 21 21 19 19 19 19 18 11 10 8 11 16 19 18 18 17 15 13 10 9 11 10 8
5 10 14 4 8 12 11 9 1 6 18 23 16 12 22 10 12 12 12 16 18 7 7 5 15 19 17 18 19 18 17 14 13 6 6 16 6 13 19 19 17 15 15 13 10 13 10 9 10
Wind_Direction
258 244 240 256 244 232 247 251 253 271 223 122 64 354 359 349 46 95 133 117 122 135 141 146 144 144 145 142 142 138 136 136 134 133 132 131 129 127 126 126 125 128 126 126 124 123 124 122 118
260 256 239 272 242 250 247 243 259 251 125 80 73 284 258 79 94 124 120 126 126 135 143 148 147 147 148 145 142 139 137 137 136 134 134 137 136 133 131 129 129 130 130 130 129 131 131 130 127
252 256 250 225 237 241 253 257 225 259 135 125 170 157 323 92 61 88 113 124 124 139 151 143 151 148 149 148 144 141 139 140 137 137 141 145 141 136 136 134 133 136 139 137 138 139 138 139 142
230 227 251 255 248 232 243 268 278 296 177 149 179 278 118 76 123 115 134 129 133 144 155 144 149 148 150 149 145 143 141 141 139 141 144 146 142 137 136 133 135 141 144 146 143 145 146 151 149
235 262 236 239 242 250 262 243 257 274 271 180 169 219 162 119 112 122 140 142 145 147 144 151 149 149 150 149 147 144 143 142 141 142 143 146 142 137 133 133 137 141 144 146 152 153 157 152 147
224 231 248 242 247 251 244 260 276 276 257 241 247 185 227 131 139 138 152 144 148 145 133 148 148 150 153 158 148 144 143 143 142 144 146 146 143 143 138 135 139 142 146 152 155 155 154 151 165
242 234 240 250 259 260 248 243 250 265 270 221 240 193 213 153 139 136 152 145 144 130 139 150 157 152 156 161 149 141 141 141 141 145 147 147 147 146 142 141 145 148 151 155 154 161 166 168 182
231 253 256 250 254 260 262 269 254 236 252 243 257 249 225 171 122 135 155 156 149 144 143 156 159 159 157 157 148 142 142 143 145 148 149 148 145 144 144 143 153 156 156 157 161 175 177 180 203
233 246 247 245 250 257 265 261 269 275 256 237 221 257 269 118 144 146 155 167 154 154 143 162 166 164 163 156 152 140 145 146 146 149 148 144 162 164 159 187 153 162 164 171 172 183 185 193 220
233 238 238 250 259 263 262 267 268 263 257 245 229 243 241 139 164 163 166 176 160 158 149 164 171 167 169 157 152 156 153 156 160 165 162 174 169 173 173 163 159 163 173 182 182 184 194 219 233
234 244 252 255 255 259 277 278 286 294 248 257 233 224 247 157 179 184 179 181 171 163 155 163 170 165 174 159 156 163 161 163 170 171 170 195 172 176 173 134 159 168 184 190 184 182 212 220 232
251 251 251 258 265 277 277 284 272 275 289 252 246 220 248 184 200 210 187 183 175 167 160 159 161 165 185 149 159 166 165 166 174 173 177 203 184 166 164 159 172 182 167 211 176 190 205 226 235
253 254 256 254 252 257 268 268 271 262 271 281 276 262 255 264 183 205 231 188 181 167 160 162 158 165 192 142 157 168 169 168 175 170 180 202 200 169 176 163 170 188 167 204 182 205 198 215 236
277 268 267 255 249 253 256 260 259 254 253 264 269 270 259 262 237 194 216 245 181 169 163 160 158 163 190 158 156 171 169 165 171 175 178 206 190 165 168 181 183 191 170 198 176 196 158 150 264
280 275 280 272 272 271 272 256 250 249 252 249 253 260 263 259 252 211 243 242 272 172 163 157 155 161 179 158 160 168 172 166 176 173 169 201 182 160 175 187 195 199 202 158 166 136 104 317 241
278 281 277 264 258 260 262 258 255 253 241 246 250 240 232 248 257 241 216 243 231 241 164 157 156 161 169 173 167 171 178 165 175 170 166 185 180 168 188 190 186 216 153 130 127 142 180 203 228
253 257 261 266 263 263 244 252 247 252 253 242 233 230 237 225 228 246 252 253 208 216 190 162 163 163 169 169 173 179 167 167 171 172 161 178 180 190 181 205 176 197 156 153 192 188 193 244 228
291 292 293 286 261 250 259 256 242 239 233 239 255 227 218 230 228 213 220 229 235 183 182 191 165 159 167 162 180 189 168 187 175 179 166 170 182 198 181 208 183 155 154 182 177 187 171 267 259
258 304 307 307 297 299 301 251 251 241 225 241 244 248 212 230 230 222 228 221 222 192 183 167 174 156 164 171 178 190 193 186 188 180 163 171 181 190 176 201 164 153 167 197 171 141 168 278 51
273 257 268 295 302 298 311 304 284 291 234 225 240 232 236 245 254 264 211 228 215 171 176 176 173 162 170 174 179 185 199 181 204 178 160 171 181 183 174 197 171 165 170 180 157 167 184 139 49
281 286 304 291 287 300 295 285 294 267 275 269 270 274 255 229 239 256 250 254 222 189 181 189 176 176 172 179 175 183 186 184 194 188 170 178 181 184 174 197 179 171 181 173 179 177 199 139 196
292 312 310 297 301 286 301 294 273 277 255 244 247 256 267 267 252 254 262 237 242 190 181 195 188 177 176 179 175 187 195 203 188 196 178 177 177 188 183 195 194 174 187 176 185 182 192 141 158
295 295 290 287 284 274 284 267 266 261 264 253 226 230 237 241 245 231 242 251 227 201 210 211 187 181 188 177 183 188 197 197 180 188 160 179 180 184 189 187 186 176 185 169 180 153 155 162 150
313 319 306 285 264 259 257 264 271 271 266 250 250 241 226 222 224 230 220 233 243 210 198 214 185 187 186 186 190 190 196 195 191 186 181 187 187 186 193 193 193 172 169 142 145 151 151 158 173
290 286 294 267 248 246 251 242 248 278 266 264 267 261 249 233 238 223 211 222 227 231 200 203 202 186 189 188 196 195 196 206 194 191 196 186 188 191 194 189 183 173 142 148 146 153 160 172 131
306 336 274 303 254 276 269 262 258 229 263 267 275 263 257 227 223 224 218 213 216 224 216 193 207 184 188 191 194 202 205 203 202 195 200 187 182 178 178 180 172 165 152 157 155 159 164 143 132
303 296 247 264 283 270 253 244 247 268 261 262 287 252 273 262 224 261 237 214 230 216 213 196 195 185 191 191 192 197 203 210 210 200 189 178 167 171 174 179 165 161 161 158 159 159 152 146 143
292 316 302 281 286 267 259 262 350 344 312 276 263 276 232 244 256 235 260 270 231 230 216 192 190 198 186 190 190 196 203 209 203 193 182 183 169 176 172 171 162 164 166 158 158 146 140 148 153
308 292 291 244 158 291 338 339 290 287 323 333 13 331 24 52 31 12 332 318 267 236 230 195 189 202 184 189 188 192 203 208 199 206 175 192 179 172 174 167 163 165 160 160 158 147 156 155 149
345 309 315 275 302 294 281 276 87 223 12 357 335 1 348 38 31 5 358 343 322 282 261 273 197 195 190 189 186 193 195 197 199 168 81 30 256 183 173 159 166 160 159 157 164 148 167 156 134